Location: Aranbee
(34.0885°N, 118.2342°W)
Time: 23:19:55
(UTC+00:00)

A-11 Canister half - Visible Passes

Search period start: 25 November 2020 00:00
Search period end: 05 December 2020 00:00
Orbit: 1525 x 1683 km, 47.3° (Epoch: 25 November)

Date Brightness Start Highest point End Pass type
(mag) Time Alt. Az. Time Alt. Az. Time Alt. Az.
25 Nov 10.8 12:01:47 10° S 12:09:50 28° SE 12:17:49 10° ENE visible
25 Nov 9.3 14:03:57 10° SW 14:14:09 89° SE 14:24:12 10° NE visible
26 Nov 10.8 11:40:26 10° S 11:48:14 26° SE 11:55:58 10° ENE visible
26 Nov 9.3 13:42:16 10° SW 13:52:29 86° SE 14:02:31 10° NE visible
27 Nov 10.8 11:19:06 10° S 11:26:36 24° SE 11:34:05 10° ENE visible
27 Nov 9.2 13:20:36 10° SW 13:30:47 83° SE 13:40:51 10° NE visible
28 Nov 10.8 10:57:48 10° S 11:05:00 22° SE 11:12:11 10° E visible
28 Nov 9.2 12:58:56 10° SW 13:09:06 80° SE 13:19:10 10° NE visible
29 Nov 10.9 10:38:13 14° SSE 10:43:24 21° SE 10:50:15 10° E visible
29 Nov 9.2 12:37:17 10° SW 12:47:26 76° SE 12:57:29 10° NE visible
30 Nov 10.9 10:19:43 18° SE 10:21:47 19° ESE 10:28:16 10° E visible
30 Nov 9.3 12:18:09 20° SW 12:25:45 73° SE 12:35:48 10° ENE visible
01 Dec 10.9 10:00:45 18° ESE 10:00:45 18° ESE 10:06:15 10° E visible
01 Dec 9.3 11:59:10 35° SSW 12:04:05 70° SE 12:14:06 10° ENE visible
01 Dec 9.4 13:59:53 10° W 14:09:42 51° NNW 14:19:24 10° NE visible
02 Dec 11.1 09:41:29 14° ESE 09:41:29 14° ESE 09:44:10 10° E visible
02 Dec 9.3 11:39:52 52° S 11:42:25 66° SE 11:52:24 10° ENE visible
02 Dec 9.3 13:38:15 11° W 13:47:58 53° NNW 13:57:43 10° NE visible
03 Dec 11.3 09:21:58 10° E 09:21:58 10° E 09:22:00 10° E visible
03 Dec 9.3 11:20:20 63° SSE 11:20:45 63° SE 11:30:42 10° ENE visible
03 Dec 9.3 13:18:42 19° W 13:26:13 55° NNW 13:36:02 10° NE visible
04 Dec 9.5 11:00:37 55° ESE 11:00:37 55° ESE 11:08:59 10° ENE visible
04 Dec 9.3 12:58:58 29° W 13:04:28 56° NNW 13:14:20 10° NE visible
